User: anonymous   Login
Location: Argonnex
(45.9500°N, 6.1333°E)
Time: 11:57:53
(UTC+00:00)
Language:

YUNHAI 2 4 - Orbit

View from above orbital plane
View from above orbital plane
View from above satellite
View from above satellite

Ground track
Ground track

The orbit data is extracted from the following two-line orbital elements,

1 43912U 18112D   24057.17077879  .00000304  00000-0  18527-3 0  9999
2 43912  50.0107 259.6655 0015272 270.4001  89.5164 14.28219418267203
Epoch (UTC): 26 February 2024 04:05:55
Eccentricity: 0.0015272
inclination: 50.0107°
perigee height: 787 km
apogee height: 808 km
right ascension of ascending node: 259.6655°
argument of perigee: 270.4001°
revolutions per day: 14.28219418
mean anomaly at epoch: 89.5164°
orbit number at epoch: 26720

The dashed part of the orbit path shows where the satellite is in the earth's shadow,  

DLR